Location: Carrières
(48.9495°N, 2.0407°E)
Time: 00:45:37
(UTC+00:00)

Cosmos 1606 Rocket - Pass Details

Date: 25 June 2024
Orbit: 599 x 628 km, 82.5° (Epoch: 15 July)

Event Time Altitude Azimuth Distance (km) Brightness Sun altitude
Rises 01:37:36 0° 344° (NNW) 2,914 7.8 -14.1°
Reaches altitude 10° 01:39:55 10° 338° (NNW) 1,998 6.8 -13.9°
Maximum altitude 01:44:05 42° 268° (W) 891 4.1 -13.7°
Enters shadow 01:46:31 22° 209° (SSW) 1,369 4.7 -13.5°
